Regional Weather Roundup
Issued by NWS Cleveland, OH

Home | Current Version | Previous Version | Graphics & Text | Print | Product List | Glossary On
Versions: 1 2 3 4 5 6 7 8 9 10 11 12 13 14 15 16 17 18 19 20 21 22 23 24 25 26 27 28 29 30 31 32 33 34 35 36 37 38 39 40 41 42 43 44 45 46 47 48 49 50
000
ASUS41 KCLE 020902
RWRCLE
OHIO REGIONAL WEATHER ROUNDUP
NATIONAL WEATHER SERVICE CLEVELAND, OH
500 AM EDT SAT AUG 02 2014

NOTE: "FAIR" INDICATES FEW OR NO CLOUDS BELOW 12,000 FEET WITH NO
SIGNIFICANT WEATHER AND/OR OBSTRUCTIONS TO VISIBILITY.

OHZ001>008-015>018-024>027-034-035-043-044-021000-
   NORTHWEST OHIO

CITY           SKY/WX    TMP DP  RH WIND       PRES   REMARKS
DEFIANCE       CLOUDY    66  58  75 CALM      30.10R
FINDLAY        CLOUDY    66  60  81 CALM      30.07S
TOLEDO EXPRESS CLOUDY    63  59  87 NW3       30.09R FOG
TOLEDO EXEC    CLOUDY    65  60  84 NW3       30.09S
LIMA           CLOUDY    65  61  87 NW9       30.10S
$$

OHZ009>014-019>023-028>033-038-089-021000-
   NORTHEAST OHIO

CITY           SKY/WX    TMP DP  RH WIND       PRES   REMARKS
CLE-HOPKINS    CLEAR     65  61  87 CALM      30.09F
CLE-LAKEFRONT  CLEAR     69  61  75 CALM      30.07S
CUY CO. ARPT   NOT AVBL
LORAIN-ELYRIA  PTCLDY    63  59  87 E5        30.08S FOG
ASHTABULA      CLEAR     63  61  93 E6        30.11S
AKRON-CANTON   MOCLDY    66  61  84 SE5       30.09S
WOOSTER        FOG       59  57  93 CALM      30.09S VSB 1
MANSFIELD      PTCLDY    60  60 100 SE5       30.09S
YOUNGSTOWN     PTCLDY    62  60  93 E7        30.10S
$$

OHZ042-051>053-060>062-070>072-077>081-021000-
  SOUTHWEST OHIO

CITY           SKY/WX    TMP DP  RH WIND       PRES   REMARKS
CINC-COVINGTON CLOUDY    68  60  75 N10       30.07R THUNDER
CINC-LUNKEN    MOCLDY    63  62  97 W9        30.08R
HAMILTON       CLOUDY    65  62  90 CALM      30.07R
DAYTON         CLOUDY    65  59  81 N12       30.08S
WRIGHT-PAT AFB CLOUDY    66  60  81 N7        30.08R
DAYTON GENERAL MOCLDY    65  60  84 NE7       30.06F
WILMINGTON     MOCLDY    63  60  90 CALM      30.07S FOG
$$

OHZ036-037-039>041-045>050-054>059-063>069-073>076-082>088-021000-
  CENTRAL AND SOUTHEAST OHIO

CITY           SKY/WX    TMP DP  RH WIND       PRES   REMARKS
COLUMBUS       PTCLDY    69  62  78 SE3       30.07R
OSU AIRPORT    PTCLDY    65  61  87 CALM      30.07R FOG
BOLTON FIELD   CLOUDY    62  62  99 CALM      30.07S FOG
RICKENBACK AFB CLEAR     65  60  83 CALM      30.06S HAZE
NEWARK         MOCLDY    63  61  93 CALM      30.08R FOG
MARION         MOCLDY    62  59  90 CALM      30.09R FOG
LANCASTER      MOCLDY    62  60  93 CALM      30.08R FOG
ZANESVILLE     MOCLDY    66  63  90 CALM      30.08F
NEW PHILLY     PTCLDY    64  62  93 CALM      30.09S FOG
$$


USA.gov is the U.S. government's official web portal to all federal, state and local government web resources and services.